This demonstration page uses our WeatherBlox Daily Observations layout. Learn more.

Hourly Observations for December 14, 2017

Temp ( °F °C ) Dew Point ( °F °C ) Humidity (%) Winds ( mph kmh ) Pressure ( in mb ) Visibility ( mi km ) Precip ( " mm )
12:54 am 00:54 Cloudy 38 3.3 24 -4.4 57 57 N 15 24 30.03 1017 10 16.0934 0 0
1:54 am 01:54 Cloudy 38 3.3 24 -4.4 57 57 N 12 19 30.05 1018 10 16.0934 0 0
2:54 am 02:54 Cloudy 38 3.3 24 -4.4 57 57 NNW 8 13 30.06 1018 10 16.0934 0 0
3:54 am 03:54 Cloudy 37 2.8 22 -5.6 54 54 N 13 20 30.06 1018 10 16.0934 0 0
4:54 am 04:54 Cloudy 37 2.8 23 -5 57 57 NW 6 9 30.07 1018 10 16.0934 0 0
5:54 am 05:54 Cloudy 37 2.8 23 -5 57 57 W 5 7 30.08 1019 10 16.0934 0 0
6:54 am 06:54 Cloudy 36 2.2 25 -3.9 64 64 WNW 6 9 30.1 1019 10 16.0934 0 0
7:54 am 07:54 Cloudy 36 2.2 26 -3.3 67 67 NW 5 7 30.11 1020 10 16.0934 0 0
8:54 am 08:54 Cloudy 36 2.2 26 -3.3 67 67 W 6 9 30.11 1020 10 16.0934 0 0
9:54 am 09:54 Cloudy 38 3.3 26 -3.3 62 62 W 9 15 30.12 1020 10 16.0934 0 0
10:54 am 10:54 Partly Cloudy 42 5.6 26 -3.3 53 53 NW 10 17 30.11 1020 10 16.0934 0 0
11:54 am 11:54 Mostly Cloudy 41 5 25 -3.9 53 53 WNW 9 15 30.11 1020 10 16.0934 0 0
12:54 pm 12:54 Cloudy 42 5.6 26 -3.3 53 53 WNW 10 17 30.1 1019 10 16.0934 0 0
1:54 pm 13:54 Mostly Cloudy 42 5.6 27 -2.8 55 55 NW 12 19 30.09 1019 10 16.0934 0 0
2:54 pm 14:54 Cloudy 42 5.6 28 -2.2 58 58 WNW 9 15 30.09 1019 10 16.0934 0 0
3:54 pm 15:54 Cloudy with Light Rain 39 3.9 32 0 76 76 NW 12 19 30.12 1020 8 12.87472 0 0.0254
4:10 pm 16:10 Cloudy 38 3.3 33 0.6 83 83 NW 10 17 30.15 1021 8 12.87472 0 0.0254
4:54 pm 16:54 Cloudy 37 2.8 33 0.6 86 86 WNW 8 13 30.14 1021 7 11.26538 0 0.0254
5:54 pm 17:54 Cloudy 37 2.8 33 0.6 86 86 NW 8 13 30.15 1021 9 14.48406 0 0
6:54 pm 18:54 Cloudy 37 2.8 32 0 82 82 NW 8 13 30.17 1022 10 16.0934 0 0
7:54 pm 19:54 Cloudy 37 2.8 32 0 82 82 NW 9 15 30.18 1022 10 16.0934 0 0
8:54 pm 20:54 Cloudy 37 2.8 31 -0.6 79 79 NNW 12 19 30.18 1022 10 16.0934 0 0
9:54 pm 21:54 Cloudy 37 2.8 32 0 82 82 NW 13 20 30.19 1022 9 14.48406 0 0
10:42 pm 22:42 Cloudy 37 2.8 31 -0.6 79 79 N 14 22 30.21 1023 10 16.0934 0 0
10:54 pm 22:54 Cloudy 36 2.2 30 -1.1 79 79 N 10 17 30.18 1022 10 16.0934 0 0
11:04 pm 23:04 Cloudy 35 1.7 30 -1.1 82 82 NNW 8 13 30.21 1023 10 16.0934 0 0
11:54 pm 23:54 Cloudy 36 2.2 28 -2.2 73 73 NNW 12 19 30.18 1022 10 16.0934 0 0

Powered by AerisWeather